Theta_e
311 310 310 310 310 310 310 311 311 311 312 312 312 312 312 311 312 312 313 312 316 317 316 315 316 316 316 317 318 317 310 310 313 312 314 315 314 316 316 315 314 316 317 317 317
310 310 310 310 310 310 310 310 311 311 311 312 312 312 312 312 312 314 314 313 313 317 317 316 316 317 316 317 318 316 308 310 309 310 314 315 314 317 315 316 313 316 317 317 317
310 311 311 311 311 311 311 311 311 311 311 312 312 312 312 312 313 313 315 314 313 315 316 315 316 317 317 316 318 314 313 310 314 315 316 315 314 317 313 312 316 316 316 316 316
312 312 312 312 312 312 312 311 311 311 311 311 312 312 313 312 310 315 315 314 313 314 315 315 316 317 315 315 317 316 315 315 315 317 316 315 316 313 314 318 317 317 317 316 316
310 310 310 311 311 311 312 312 312 312 312 312 312 313 313 312 313 314 314 313 313 314 315 315 315 315 314 313 314 314 314 317 318 316 317 317 315 313 315 317 317 317 316 316 316
312 312 312 312 312 312 311 311 311 311 312 312 312 312 312 310 314 314 314 314 314 314 315 315 314 314 315 314 313 313 314 313 314 315 315 314 314 314 315 316 316 315 316 316 316
314 314 314 314 314 314 314 314 314 313 312 311 311 310 310 313 314 315 315 315 314 314 314 315 314 314 313 312 313 314 312 309 309 312 310 313 312 309 316 315 315 315 316 317 317
315 314 313 312 312 312 312 313 314 315 315 314 313 310 308 312 313 314 315 314 313 313 313 313 313 313 313 312 311 311 310 311 310 309 311 312 310 310 314 314 314 316 316 316 316
321 320 317 314 313 311 311 310 311 313 313 313 312 309 309 311 310 311 312 313 312 312 312 312 312 312 312 309 309 307 309 308 308 309 309 308 309 309 314 313 314 315 315 315 315
323 323 321 320 318 317 315 312 310 310 311 311 309 309 312 313 311 312 313 312 312 312 312 311 312 308 306 307 310 309 307 307 307 309 307 309 309 309 313 312 310 311 313 313 314
325 325 324 323 321 320 318 315 311 310 311 313 313 312 310 311 311 313 314 313 312 312 309 310 308 309 310 307 309 308 307 306 307 308 308 310 310 309 310 310 311 311 311 312 312
324 324 324 324 323 323 319 317 312 310 310 313 312 312 312 311 313 314 312 312 311 310 307 307 308 309 309 308 308 308 308 309 309 309 307 308 309 309 309 310 311 311 312 311 313
324 324 324 324 324 322 321 317 316 307 308 313 313 309 310 310 310 311 312 312 310 308 307 310 310 309 308 308 309 307 308 310 309 308 306 305 310 307 308 308 310 311 313 311 313
325 324 324 324 323 322 321 320 316 308 310 310 308 309 309 309 308 308 311 311 309 310 307 308 308 309 308 308 308 310 307 308 309 308 310 307 311 308 308 308 307 309 311 314 315
323 322 323 322 323 323 321 320 314 311 322 313 308 310 311 308 307 307 310 311 309 309 308 309 309 309 309 309 307 310 309 307 307 307 307 308 307 311 307 309 308 307 312 311 314
321 322 322 323 323 322 321 319 314 315 323 315 307 308 309 309 308 308 309 309 308 307 306 307 307 307 308 306 306 307 308 306 305 306 309 309 308 314 308 309 310 309 314 313 314
318 319 321 322 322 320 320 319 321 323 316 316 310 308 308 308 309 306 307 308 308 312 310 307 306 306 307 308 306 308 307 308 308 308 311 307 307 312 310 310 308 307 311 312 313
315 315 316 318 320 320 319 318 321 318 317 314 313 312 315 310 312 306 305 307 304 306 305 310 319 307 304 307 308 305 308 309 312 309 314 303 309 315 311 309 311 310 310 310 312
310 310 312 312 316 319 318 321 319 315 315 317 318 319 317 311 313 308 305 307 308 304 314 309 311 306 304 306 307 306 308 308 310 310 309 312 309 309 310 307 307 308 309 310 312
307 308 311 309 315 318 316 318 315 315 316 317 320 318 318 313 311 308 308 307 308 304 306 310 311 307 306 305 305 306 306 309 307 312 313 310 311 312 312 312 308 306 306 311 312
302 307 309 309 314 313 316 316 316 316 316 316 318 319 318 318 314 317 318 313 307 309 304 306 310 312 312 308 310 309 307 306 307 310 315 316 314 310 312 311 307 305 311 307 304
301 307 308 314 312 312 314 314 314 314 314 313 315 316 316 316 317 316 317 315 313 310 309 307 315 317 314 310 307 307 311 310 313 313 310 312 313 310 309 310 306 301 300 301 302
305 306 307 312 310 311 312 313 313 313 313 314 315 314 314 315 316 316 315 313 314 313 315 313 314 315 314 310 308 312 312 312 313 312 315 316 314 311 309 303 299 296 294 294 294
301 301 306 309 308 310 309 309 310 311 312 312 313 313 313 313 312 314 314 311 309 309 310 309 311 314 314 312 312 314 312 312 313 315 314 313 312 311 300 297 294 295 292 292 292
298 300 301 301 305 306 307 308 308 308 308 309 310 311 311 312 312 312 311 310 307 306 306 308 311 311 311 311 310 309 308 307 309 309 311 310 310 306 294 293 293 293 292 292 292
296 296 298 298 298 301 303 304 306 305 305 306 306 306 306 307 308 308 307 304 306 304 303 304 305 304 303 302 302 304 305 304 305 304 305 306 304 293 292 292 292 292 292 291 291
293 294 295 296 296 298 297 300 301 299 300 299 298 301 303 302 299 298 297 298 299 300 300 301 303 302 302 300 300 300 300 302 302 302 299 301 294 291 291 291 290 290 292 290 290
Wind_Speed
8 8 9 9 9 9 10 10 10 10 9 10 10 11 12 13 14 15 17 10 8 8 7 5 6 5 5 3 4 3 3 3 5 5 5 2 1 4 5 9 7 9 19 21 20
9 9 10 10 11 11 11 12 12 12 12 12 12 13 14 15 17 21 11 11 9 9 9 8 8 7 4 4 4 4 4 7 6 5 5 5 5 14 4 11 12 20 26 26 27
11 11 12 12 13 13 14 14 14 14 14 14 14 15 16 16 18 2 3 7 5 10 11 10 9 8 5 5 8 6 6 5 8 17 13 7 7 12 4 8 27 21 24 20 23
13 14 14 15 15 15 16 16 16 16 16 16 15 16 17 15 6 1 7 13 10 12 14 12 9 5 4 5 7 3 13 13 7 9 6 6 14 8 12 35 34 34 32 33 31
15 15 16 16 17 18 18 18 18 18 17 17 16 17 18 9 18 22 20 15 12 12 16 15 13 6 4 5 4 5 6 16 24 22 23 23 27 13 22 46 41 39 33 31 29
15 15 16 17 18 19 19 20 21 20 20 19 17 17 18 10 15 11 11 12 13 13 16 18 8 11 7 7 7 3 8 13 15 20 21 11 27 3 31 36 35 33 33 28 26
14 14 15 16 18 19 19 20 22 21 21 20 19 19 22 32 22 24 25 26 20 18 18 17 19 9 2 4 5 6 7 9 7 13 7 11 10 10 35 31 31 36 31 29 28
10 12 13 15 16 18 19 20 21 21 20 19 18 18 19 25 25 27 26 28 22 17 17 15 13 14 12 6 3 3 1 5 2 5 4 11 10 21 26 21 27 26 25 32 37
10 11 13 14 16 18 18 19 20 20 19 17 16 14 11 18 19 23 26 24 18 18 14 11 6 7 3 3 4 3 6 8 10 12 6 8 10 13 21 15 19 29 44 46 51
11 13 15 16 17 19 18 18 17 17 14 10 13 5 18 13 11 11 14 16 12 9 7 8 6 3 2 4 7 9 6 6 7 7 7 6 16 14 34 34 33 37 46 51 53
13 13 15 17 17 19 18 16 7 4 5 9 5 8 6 12 11 11 10 11 9 7 6 4 4 9 20 13 9 2 6 11 8 9 4 20 22 18 25 26 36 38 36 45 47
14 16 16 17 19 20 16 9 10 9 11 16 23 29 32 17 6 12 9 9 8 6 6 4 7 17 2 2 6 5 11 18 14 14 5 13 21 17 20 25 32 39 41 36 43
15 16 15 17 20 18 16 14 16 14 5 12 19 16 16 16 11 12 11 6 5 6 9 11 10 4 6 3 8 4 7 17 14 7 5 10 14 8 9 13 27 37 44 36 39
16 18 16 16 16 10 14 15 17 15 3 7 3 1 3 4 2 4 14 5 3 9 5 6 4 6 3 7 9 15 11 13 11 6 7 5 15 7 8 10 8 27 25 29 23
18 19 17 16 13 13 12 11 12 8 6 4 1 1 1 5 3 1 10 6 4 5 3 7 3 2 4 9 8 11 4 7 3 4 5 1 3 2 4 6 11 9 11 15 21
20 17 16 16 15 9 7 7 6 3 8 3 1 1 1 2 2 4 4 5 1 2 3 7 2 6 8 7 9 2 2 4 4 2 6 9 8 20 3 4 3 9 30 22 19
11 12 14 15 6 3 3 4 2 7 4 2 1 1 2 4 3 4 4 4 5 2 4 2 5 4 5 3 1 3 4 3 3 1 9 3 3 15 9 15 8 10 19 8 18
11 11 13 13 14 8 5 2 8 4 7 2 2 3 4 4 4 3 4 4 6 3 2 5 16 6 5 9 9 8 9 6 7 5 12 4 7 18 5 9 27 20 16 5 20
19 19 20 16 12 15 8 7 8 6 5 3 1 2 3 3 3 2 5 5 7 11 7 4 11 3 6 4 4 4 5 3 2 2 2 12 14 14 14 6 4 2 4 13 22
19 17 19 17 13 20 6 19 6 5 1 1 4 6 4 3 1 3 6 2 5 8 1 4 11 5 3 4 5 7 3 2 1 3 6 7 13 12 22 24 7 8 13 32 34
16 7 7 8 18 13 10 10 10 19 17 5 4 8 8 5 5 7 3 5 5 2 7 2 3 7 0 7 12 2 4 3 2 5 10 16 12 10 21 22 8 10 27 28 30
7 2 6 15 10 6 14 8 12 25 22 6 8 19 19 16 20 20 19 11 6 5 4 9 5 12 25 6 4 5 11 9 11 9 10 13 12 14 16 22 25 25 27 30 29
6 5 5 18 7 11 11 8 15 20 20 4 7 8 13 16 12 14 13 6 13 4 3 4 4 2 4 5 4 1 2 4 10 6 13 12 7 8 12 18 27 27 30 30 32
4 1 5 16 21 7 13 15 17 19 15 15 14 15 16 20 18 13 6 4 2 2 7 5 5 10 14 13 7 11 10 12 13 9 14 14 21 17 13 13 19 19 25 31 33
5 3 3 3 8 12 12 9 14 12 3 11 5 10 9 10 12 10 8 5 2 2 2 2 12 15 18 11 7 8 13 18 18 17 12 19 20 8 10 13 18 14 20 22 29
4 2 2 4 9 5 5 13 20 25 13 19 19 18 15 15 13 19 9 4 5 2 1 2 3 5 13 19 14 19 18 19 21 20 16 18 11 4 5 9 12 13 13 23 25
3 5 2 4 1 1 2 3 4 5 8 7 9 6 9 5 4 3 5 10 6 2 2 2 3 6 18 12 8 12 21 20 18 19 3 10 2 1 4 8 15 17 10 19 19
Wind_Direction
310 312 313 315 315 315 315 316 317 317 319 321 323 323 322 323 318 309 299 282 254 236 236 229 217 216 206 201 197 161 65 242 252 184 249 252 260 274 263 267 245 228 250 273 279
298 302 304 305 306 307 305 305 306 308 311 312 314 315 316 319 315 307 300 261 243 233 224 224 213 201 188 193 193 151 145 228 215 209 244 285 247 288 266 271 263 259 268 276 276
294 296 297 297 298 298 298 298 297 298 300 302 307 310 314 322 321 330 57 23 258 239 227 222 214 201 202 197 198 184 210 216 244 247 267 281 278 274 196 276 268 261 294 290 280
285 287 289 292 292 292 292 293 293 294 294 294 298 302 306 315 302 295 304 311 295 241 228 220 202 192 195 208 210 233 243 240 256 256 277 265 289 262 223 270 287 287 291 286 280
289 289 290 289 289 289 289 288 286 286 286 288 292 295 300 288 267 285 287 285 272 249 233 226 215 204 200 215 215 219 244 254 263 272 273 279 270 252 261 283 289 289 290 287 282
288 290 290 291 290 288 288 287 285 283 282 281 281 282 283 258 281 284 283 283 272 251 240 228 214 229 266 229 197 283 266 274 283 274 265 227 270 200 269 280 286 288 292 290 285
292 293 293 293 291 291 290 287 285 283 280 278 276 273 270 262 273 276 278 279 268 255 248 242 236 231 221 279 263 285 311 311 227 263 233 220 295 231 274 285 286 286 285 289 289
310 308 307 304 301 298 296 290 286 284 280 276 272 268 258 275 269 263 261 260 258 250 247 249 240 244 250 274 315 304 184 305 8 131 263 162 256 272 289 275 277 284 286 289 288
323 326 326 319 317 313 311 300 294 285 280 273 264 244 261 263 264 264 257 253 257 248 237 238 200 221 224 90 4 335 250 224 300 218 190 186 253 256 280 293 264 273 285 288 288
326 332 335 333 331 328 330 319 302 289 281 269 241 237 247 249 255 258 248 234 228 215 207 194 181 123 31 117 240 234 235 254 244 278 181 225 251 275 279 288 274 274 281 284 285
319 324 333 333 335 335 338 343 330 303 285 233 273 240 268 239 251 249 235 209 200 181 173 167 126 202 221 202 243 172 239 252 262 264 300 278 276 270 272 271 278 280 273 278 280
311 317 326 328 334 335 342 6 348 307 303 269 265 254 257 255 263 242 217 179 176 199 115 50 225 231 44 140 236 251 269 272 277 264 250 273 273 278 265 257 256 269 278 276 287
286 298 306 313 323 329 340 345 342 334 264 272 252 255 262 258 239 236 205 202 161 173 200 210 235 196 183 168 240 211 235 265 267 303 253 299 281 233 272 253 258 261 268 278 284
282 284 289 297 310 321 329 335 339 334 288 274 261 251 221 208 242 233 198 210 215 230 192 229 290 205 133 209 203 264 225 256 272 348 282 4 298 177 230 262 273 269 280 288 302
274 282 289 302 289 304 312 326 331 332 295 270 204 284 186 185 163 278 185 192 200 185 146 250 195 165 173 219 159 241 178 240 194 205 317 244 271 106 105 223 267 290 283 320 354
273 275 278 280 277 297 297 315 342 12 249 306 144 224 192 235 213 132 160 177 162 182 221 243 169 181 219 218 188 102 99 58 48 96 280 188 180 295 159 240 250 317 311 331 355
284 274 269 265 261 289 262 317 15 227 331 291 261 255 248 225 234 179 158 170 190 237 242 222 219 221 175 232 136 144 87 311 326 42 233 81 162 251 288 280 269 280 287 299 5
269 273 268 262 264 251 222 84 236 192 229 327 314 11 253 181 256 192 129 238 226 159 139 213 293 180 179 196 200 184 171 176 218 253 282 98 244 269 239 285 283 282 279 300 3
273 271 264 251 238 236 203 215 229 184 210 224 116 237 266 274 242 205 229 235 214 180 195 208 263 186 193 184 180 180 178 241 320 271 259 267 273 299 294 303 345 318 311 344 344
268 267 264 272 225 217 223 236 231 209 110 22 217 185 260 230 194 228 199 200 252 196 296 258 266 190 214 166 214 179 192 216 341 243 243 232 260 267 290 291 300 303 325 337 333
266 264 253 210 211 193 226 243 248 258 264 249 235 252 252 248 222 268 250 267 229 204 188 224 246 267 76 204 206 189 232 216 201 202 254 266 258 262 274 296 343 352 347 8 12
204 225 224 193 189 231 236 233 249 261 266 281 264 259 259 268 272 266 254 229 214 183 186 219 208 237 252 249 231 189 250 243 241 249 244 264 263 296 315 313 26 41 22 11 10
184 240 207 188 227 232 244 257 252 265 268 272 267 257 270 268 279 253 249 260 268 265 294 13 238 259 309 311 41 141 290 278 276 280 250 263 273 306 326 13 25 20 8 9 9
172 223 210 212 237 259 251 263 263 263 259 252 263 265 275 276 267 270 264 307 350 160 277 237 223 258 272 268 262 273 269 270 265 263 285 269 284 288 349 359 358 7 15 2 360
194 230 200 229 242 248 251 268 272 276 230 302 267 251 282 284 276 259 248 267 297 341 344 330 277 272 270 290 312 300 291 287 265 268 266 287 286 340 16 354 354 360 1 3 355
186 188 259 276 300 302 233 247 258 269 274 274 268 274 282 273 267 285 287 200 229 6 18 133 286 335 298 293 292 282 271 259 266 279 267 263 271 35 4 340 337 338 349 345 345
218 240 252 263 324 145 223 286 322 16 53 36 18 333 295 307 1 314 289 285 274 293 240 243 273 271 272 287 301 280 253 252 257 261 251 259 114 193 295 323 330 323 322 338 334